Date String (YYYY-MM-DD hh:mm:ss) UTC,Instrument flags,Ambient pressure (hPa),Sample flow (lpm),Bypass flow (lpm),Sample temperature (°C),Ambient temperature (°C),ASC tube jacket temperature (°C),LED temperature (°C),Box temperature (°C),Sample RH (%),Span deviation,Mass concentration (μg/m³),Mass concentration (μg/m³),Mass concentration (μg/m³)
DateTimeUTC,F1_M11,P_M11,Q1_M11,Q2_M11,T1_M11,T2_M11,T3_M11,T4_M11,T5_M11,U1_M11,ZSPAN_M11,X0_M11,X2_M11,X1_M11
2023-02-03 13:00:00,,0831.5,5.00,0.00,22.3,21.1,00.0,31.2,24.2,05.1,0000.0,0002.34,0000.77,0000.33
2023-02-03 13:01:00,,0831.6,5.00,0.00,22.4,21.8,00.0,31.1,24.4,05.1,0000.0,0002.34,0000.77,0000.33
2023-02-03 13:02:00,,0831.6,5.00,0.00,22.5,22.6,00.0,31.2,24.6,05.1,0000.0,0002.40,0000.76,0000.32
2023-02-03 13:03:00,,0831.5,4.99,0.00,22.6,22.6,00.0,31.2,24.6,05.1,0000.0,0002.44,0000.76,0000.33
2023-02-03 13:04:00,,0831.5,5.00,0.00,22.6,22.3,00.0,31.3,24.6,05.2,0000.0,0002.46,0000.80,0000.34
2023-02-03 13:05:00,,0831.5,5.02,0.00,22.6,22.0,00.0,31.3,24.5,05.2,0000.0,0002.52,0000.82,0000.34
2023-02-03 13:06:00,,0831.5,5.00,0.00,22.6,21.8,00.0,31.3,24.5,05.2,0000.0,0002.56,0000.83,0000.34
2023-02-03 13:07:00,,0831.5,5.01,0.00,22.6,21.7,00.0,31.3,24.4,05.2,0000.0,0002.62,0000.85,0000.33
2023-02-03 13:08:00,,0831.5,4.98,0.00,22.6,21.5,00.0,31.3,24.4,05.2,0000.0,0002.69,0000.86,0000.33
2023-02-03 13:09:00,,0831.5,5.00,0.00,22.6,21.4,00.0,31.4,24.4,05.2,0000.0,0003.28,0000.88,0000.32
2023-02-03 13:10:00,,0831.5,5.00,0.00,22.6,21.4,00.0,31.4,24.4,05.2,0000.0,0003.40,0000.84,0000.32
2023-02-03 13:11:00,,0831.5,5.01,0.00,22.6,21.3,00.0,31.4,24.4,05.2,0000.0,0003.31,0000.84,0000.33
2023-02-03 13:12:00,,0831.5,5.01,0.00,22.6,21.3,00.0,31.4,24.4,05.2,0000.0,0003.28,0000.85,0000.34
2023-02-03 13:13:00,,0831.5,5.00,0.00,22.6,21.2,00.0,31.4,24.3,05.2,0000.0,0003.05,0000.84,0000.34
2023-02-03 13:14:00,,0831.5,5.00,0.00,22.5,21.1,00.0,31.4,24.3,05.1,0000.0,0002.84,0000.84,0000.34
2023-02-03 13:15:00,,0831.5,4.99,0.00,22.5,21.0,00.0,31.4,24.2,05.2,0000.0,0002.73,0000.80,0000.34
2023-02-03 13:16:00,,0831.5,5.01,0.00,22.5,20.8,00.0,31.4,24.2,05.3,0000.0,0002.69,0000.77,0000.34
2023-02-03 13:17:00,,0831.5,4.99,0.00,22.4,20.7,00.0,31.3,24.1,05.3,0000.0,0002.67,0000.72,0000.33
2023-02-03 13:18:00,,0831.6,5.01,0.00,22.3,20.5,00.0,31.3,24.0,05.5,0000.0,0003.51,0000.70,0000.33
2023-02-03 13:19:00,,0831.5,5.00,0.00,22.3,20.4,00.0,31.3,23.9,05.4,0000.0,0003.42,0000.68,0000.33
2023-02-03 13:20:00,,0831.5,5.01,0.00,22.2,20.3,00.0,31.3,23.9,05.4,0000.0,0002.91,0000.65,0000.34
2023-02-03 13:21:00,,0831.5,5.03,0.00,22.2,20.2,00.0,31.2,23.8,05.5,0000.0,0002.36,0000.63,0000.33
2023-02-03 13:22:00,,0831.5,5.01,0.00,22.1,20.1,00.0,31.2,23.7,05.5,0000.0,0002.44,0000.62,0000.33
2023-02-03 13:23:00,,0831.6,5.00,0.00,22.1,20.0,00.0,31.2,23.7,05.5,0000.0,0003.09,0000.62,0000.33
2023-02-03 13:24:00,,0831.5,4.99,0.00,22.0,19.9,00.0,31.2,23.6,05.5,0000.0,0003.14,0000.62,0000.32
2023-02-03 13:25:00,,0831.5,5.02,0.00,22.0,19.9,00.0,31.1,23.6,05.5,0000.0,0003.30,0000.63,0000.32
2023-02-03 13:26:00,,0831.5,5.03,0.00,21.9,20.2,00.0,31.1,23.6,05.5,0000.0,0003.60,0000.63,0000.32
2023-02-03 13:27:00,,0831.5,5.01,0.00,22.0,21.2,00.0,31.0,23.9,05.5,0000.0,0003.53,0000.61,0000.32
2023-02-03 13:28:00,,0831.5,5.01,0.00,22.1,22.3,00.0,31.0,24.1,05.5,0000.0,0003.52,0000.61,0000.31
2023-02-03 13:29:00,,0831.5,5.00,0.00,22.2,22.5,00.0,31.1,24.3,05.6,0000.0,0002.48,0000.58,0000.31
2023-02-03 13:30:00,,0831.5,4.99,0.00,22.3,22.1,00.0,31.1,24.2,05.7,0000.0,0002.46,0000.58,0000.30
2023-02-03 13:31:00,,0831.5,5.00,0.00,22.3,21.7,00.0,31.1,24.2,05.5,0000.0,0002.55,0000.59,0000.30
2023-02-03 13:32:00,,0831.5,5.01,0.00,22.3,21.5,00.0,31.1,24.1,05.5,0000.0,0002.53,0000.59,0000.31
2023-02-03 13:33:00,,0831.5,5.00,0.00,22.3,21.2,00.0,31.1,24.1,05.5,0000.0,0002.42,0000.58,0000.31
2023-02-03 13:34:00,,0831.5,5.00,0.00,22.2,20.9,00.0,31.1,24.0,05.5,0000.0,0001.70,0000.57,0000.30
2023-02-03 13:35:00,,0831.5,5.01,0.00,22.2,20.7,00.0,31.1,24.0,05.5,0000.0,0001.62,0000.55,0000.31
2023-02-03 13:36:00,,0831.5,4.99,0.00,22.2,20.6,00.0,31.1,23.9,05.5,0000.0,0002.13,0000.58,0000.31
2023-02-03 13:37:00,,0831.5,5.01,0.00,22.2,20.6,00.0,31.1,23.9,05.5,0000.0,0001.76,0000.57,0000.31
2023-02-03 13:38:00,,0831.5,5.01,0.00,22.2,20.6,00.0,31.1,23.9,05.5,0000.0,0001.77,0000.57,0000.31
2023-02-03 13:39:00,,0831.5,4.98,0.00,22.2,20.7,00.0,31.1,23.9,05.7,0000.0,0001.76,0000.58,0000.32
2023-02-03 13:40:00,,0831.5,4.99,0.00,22.1,20.6,00.0,31.1,23.8,05.7,0000.0,0001.78,0000.58,0000.32
2023-02-03 13:41:00,,0831.4,5.01,0.00,22.1,20.4,00.0,31.1,23.8,05.6,0000.0,0001.72,0000.57,0000.32
2023-02-03 13:42:00,,0831.4,5.00,0.00,22.1,20.4,00.0,31.1,23.7,05.8,0000.0,0002.00,0000.59,0000.32
2023-02-03 13:43:00,,0831.4,4.99,0.00,22.0,20.3,00.0,31.0,23.7,05.7,0000.0,0002.52,0000.59,0000.33
2023-02-03 13:44:00,,0831.5,5.01,0.00,22.0,20.3,00.0,31.0,23.7,05.7,0000.0,0002.56,0000.62,0000.34
2023-02-03 13:45:00,,0831.4,4.99,0.00,22.0,20.2,00.0,31.0,23.7,05.6,0000.0,0003.23,0000.63,0000.34
2023-02-03 13:46:00,,0831.4,5.00,0.00,22.0,20.3,00.0,31.0,23.7,05.6,0000.0,0003.98,0000.63,0000.34
2023-02-03 13:47:00,,0831.3,4.95,0.00,22.0,20.3,00.0,31.0,23.7,05.6,0000.0,0003.41,0000.63,0000.34
2023-02-03 13:48:00,,0831.3,5.02,0.00,22.0,20.3,00.0,31.0,23.7,05.6,0000.0,0003.44,0000.64,0000.34
2023-02-03 13:49:00,,0831.3,5.04,0.00,22.0,20.4,00.0,30.9,23.6,06.0,0000.0,0003.50,0000.66,0000.34
2023-02-03 13:50:00,,0831.4,5.02,0.00,22.0,20.4,00.0,30.9,23.7,05.9,0000.0,0003.55,0000.68,0000.33
2023-02-03 13:51:00,,0831.4,4.98,0.00,22.0,20.5,00.0,30.9,23.7,05.7,0000.0,0003.55,0000.70,0000.33
2023-02-03 13:52:00,,0831.4,5.01,0.00,21.9,20.4,00.0,30.9,23.6,05.6,0000.0,0003.57,0000.73,0000.34
2023-02-03 13:53:00,,0831.3,4.97,0.00,21.9,20.3,00.0,30.9,23.6,05.6,0000.0,0003.58,0000.75,0000.34
2023-02-03 13:54:00,,0831.4,5.01,0.00,21.9,20.2,00.0,30.9,23.5,05.7,0000.0,0002.94,0000.76,0000.33
2023-02-03 13:55:00,,0831.4,5.00,0.00,21.8,20.1,00.0,30.8,23.5,05.7,0000.0,0002.89,0000.74,0000.31
2023-02-03 13:56:00,,0831.4,4.99,0.00,21.8,20.1,00.0,30.8,23.5,05.6,0000.0,0002.51,0000.73,0000.30
2023-02-03 13:57:00,,0831.4,4.98,0.00,21.8,20.2,00.0,30.8,23.5,05.6,0000.0,0001.65,0000.76,0000.30
2023-02-03 13:58:00,,0831.4,5.01,0.00,21.8,20.5,00.0,30.8,23.6,05.7,0000.0,0001.63,0000.74,0000.30
2023-02-03 13:59:00,,0831.4,5.01,0.00,21.9,21.4,00.0,30.8,23.8,05.6,0000.0,0001.57,0000.72,0000.30
